User: anonymous   Login
Location: Unspecified
(0.0000°N, 0.0000°E)
Time: 04:36:24
(UTC+00:00)
Language:

Nimbus 7 Rocket - Orbit

View from above orbital plane
View from above orbital plane
View from above satellite
View from above satellite

Ground track
Ground track

The orbit data is extracted from the following two-line orbital elements,

1 11081U 78098B   18020.60140124 -.00000019 +00000-0 +23421-4 0  9999
2 11081 099.5193 261.7676 0029710 053.7952 306.5944 13.85645262822650
Epoch (UTC): 20 January 2018 14:26:01
Eccentricity: 0.0029710
inclination: 99.5193°
perigee height: 922 km
apogee height: 965 km
right ascension of ascending node: 261.7676°
argument of perigee: 53.7952°
revolutions per day: 13.85645262
mean anomaly at epoch: 306.5944°
orbit number at epoch: 82265

The dashed part of the orbit path shows where the satellite is in the earth's shadow,  

DLR